Dewpoint
39 32 30 29 27 25 24 22 20 17 16 15 15 15 15 15 16 16 16 17 19 20 21 22 22 20 19 18 19 19 19 20 18 19 18 19 20 21 20 22 23 23 25
33 32 28 27 25 23 20 18 16 15 15 15 14 15 15 15 15 13 15 18 20 20 21 23 22 16 17 17 18 18 19 20 20 20 21 21 20 22 23 22 20 17 18
31 28 26 25 23 19 17 15 15 15 15 15 16 16 15 16 14 13 14 18 20 21 21 21 19 17 16 17 17 20 21 19 21 22 21 23 25 25 24 21 18 17 16
29 27 24 22 19 17 16 16 16 15 16 16 16 16 16 14 14 14 19 21 21 22 22 22 20 18 19 19 20 21 20 21 21 22 25 29 26 24 22 18 16 20 20
25 23 21 19 18 17 17 16 16 17 17 16 15 15 15 14 12 21 23 23 22 21 20 20 19 22 26 27 24 23 22 23 27 29 31 26 23 18 15 18 19 22 23
22 21 19 19 18 19 17 17 18 18 17 16 15 15 15 11 22 26 26 22 21 20 19 18 19 24 23 27 27 27 26 29 31 30 27 21 16 15 18 21 25 24 22
19 19 19 18 18 17 17 17 18 17 16 15 14 14 13 14 23 26 26 22 21 20 21 22 20 18 25 21 25 28 30 33 31 25 20 16 17 19 27 29 25 24 22
18 18 18 17 16 16 16 16 15 14 14 14 14 13 14 13 23 25 26 21 20 20 22 21 20 21 22 24 25 30 29 24 19 17 18 20 25 27 25 22 24 25 24
18 17 16 15 15 16 16 15 14 13 13 13 14 13 13 13 20 25 25 20 19 19 19 19 21 21 25 27 28 29 20 17 19 23 26 29 27 26 25 23 25 24 21
17 16 14 14 15 16 15 13 14 14 14 13 14 13 15 13 18 24 24 20 19 18 18 19 24 24 26 29 25 19 19 17 21 26 19 18 20 20 24 21 25 25 23
15 14 14 15 14 13 13 12 13 13 13 12 12 13 14 15 16 23 25 21 19 19 18 19 20 24 27 26 25 18 18 23 23 18 16 16 17 18 19 22 24 26 24
14 14 14 13 11 11 12 13 13 13 11 11 11 11 12 13 17 20 25 25 25 20 22 19 20 25 25 24 22 22 25 24 17 16 16 16 20 24 25 26 26 26 26
14 13 13 12 12 12 12 13 13 12 11 11 12 12 11 12 14 20 23 24 24 25 20 23 25 24 22 19 20 23 22 17 16 17 17 22 23 24 26 26 27 27 27
13 12 11 11 12 12 13 13 12 11 12 12 12 12 12 12 13 16 18 19 24 21 22 23 20 20 19 18 17 16 16 16 17 18 18 18 19 23 23 24 24 24 23
13 12 12 13 12 12 12 14 13 13 16 14 13 13 13 13 15 22 22 21 21 21 22 16 12 12 13 14 15 15 16 17 19 19 19 18 17 20 22 23 24 24 22
10 11 13 13 13 12 12 11 17 17 18 18 18 18 15 19 22 23 24 24 24 23 17 12 12 14 14 14 15 16 18 20 19 21 20 21 21 21 22 23 23 23 22
13 14 15 13 11 11 12 11 8 7 13 13 16 18 20 20 22 23 23 22 22 19 12 13 14 15 16 17 18 20 21 20 22 21 22 22 23 23 21 22 22 23 23
16 18 13 12 11 13 12 10 7 7 6 4 9 13 17 20 22 23 21 19 12 13 12 13 16 15 16 18 19 20 21 20 20 21 22 23 22 22 22 22 22 22 23
15 15 14 13 13 13 11 8 7 8 5 4 6 9 13 19 21 20 18 11 12 12 12 14 15 16 17 19 20 21 21 20 22 22 22 22 23 23 22 22 23 24 24
18 20 16 10 9 9 7 6 8 6 4 5 6 8 10 15 14 12 11 12 12 12 12 15 16 17 19 20 21 21 21 20 20 21 22 22 23 24 23 23 23 24 24
13 12 14 8 7 7 6 8 7 5 5 7 8 10 19 16 12 11 11 11 12 12 14 15 16 18 19 20 20 20 20 20 20 21 21 22 23 23 24 25 26 26 27
11 8 8 7 6 6 8 7 5 7 8 9 10 11 17 11 10 11 11 12 12 12 15 16 17 18 20 20 20 20 20 19 20 22 22 22 23 24 25 26 27 28 29
8 6 6 5 6 9 6 6 8 8 9 10 10 10 9 9 9 10 11 11 13 15 16 16 17 18 19 21 22 22 20 20 21 22 21 22 23 25 27 29 31 29 26
7 6 5 5 6 8 6 8 8 11 10 10 9 9 8 9 9 10 13 15 15 17 16 16 17 18 19 20 21 22 23 23 23 23 25 28 30 31 31 31 31 29 26
7 6 6 6 7 6 7 8 9 10 10 9 9 8 9 10 11 14 15 15 16 16 17 17 18 19 19 20 20 21 23 26 30 31 32 33 32 32 32 31 28 27 27
7 7 7 6 7 7 8 10 10 10 11 13 13 13 12 12 13 15 16 16 17 16 16 17 18 19 20 21 21 24 28 30 33 35 32 31 30 31 30 28 27 26 26
Lifted_Index
-2 -1 -1 0 1 2 4 7 9 9 10 10 11 11 11 11 12 13 15 16 17 18 18 18 18 19 20 21 21 21 21 20 19 19 20 21 21 21 21 21 20 19 19
-2 -1 -0 0 1 3 5 8 9 10 10 11 11 11 11 12 13 14 16 17 18 18 18 18 19 19 20 21 21 21 21 20 20 20 20 21 21 21 20 20 19 18 17
-1 -1 0 1 2 4 7 8 9 10 10 11 11 11 11 13 14 16 17 18 18 18 18 19 20 20 20 21 21 21 21 21 21 21 21 20 20 20 19 18 17 16 16
-1 -0 1 3 5 7 8 9 9 10 10 11 11 11 12 14 16 18 19 19 18 19 19 20 21 21 21 21 21 21 21 21 21 20 20 20 19 18 17 17 16 15 15
0 1 3 5 6 7 8 9 9 10 11 11 11 12 14 16 18 19 19 19 19 19 20 21 21 21 21 21 21 21 21 21 20 20 19 18 18 17 16 15 15 14 14
1 3 5 6 7 8 9 9 10 10 11 11 12 14 16 18 19 19 19 19 20 20 20 21 21 21 21 22 21 21 21 20 19 18 18 17 16 16 15 15 15 14 13
3 4 6 7 7 8 9 9 10 10 11 12 14 15 17 18 19 19 19 20 20 20 21 21 21 21 22 22 21 21 20 19 18 17 17 16 16 15 15 15 15 15 14
4 5 6 7 8 9 9 10 10 11 12 14 16 17 18 18 19 20 20 21 21 21 21 21 21 21 21 21 21 20 19 17 16 16 16 16 15 15 16 16 16 15 15
6 6 8 9 9 9 10 10 11 13 14 16 17 18 18 19 20 20 21 21 21 21 21 21 21 21 21 21 20 19 18 16 16 15 15 15 16 16 16 17 16 15 15
7 7 9 10 10 10 11 12 13 15 16 17 18 18 19 19 20 21 21 21 21 21 21 21 21 21 21 20 19 18 17 16 15 15 15 15 16 16 16 16 15 15 14
8 8 10 11 11 12 13 14 16 17 17 17 17 18 19 20 21 21 22 22 22 22 21 21 21 21 20 19 18 17 16 16 15 15 15 15 15 15 15 15 15 14 14
9 10 11 12 13 14 15 16 17 17 17 17 17 18 19 20 21 22 22 22 22 22 21 21 21 20 19 18 17 16 16 15 15 14 14 13 13 13 13 13 13 13 13
10 11 12 13 15 16 16 17 17 17 17 17 17 18 19 20 22 23 22 22 22 21 21 21 20 19 18 17 16 16 15 15 14 13 13 12 12 12 12 12 12 12 12
12 13 14 15 16 17 17 17 17 17 18 18 18 19 19 21 22 23 22 22 22 21 21 20 18 18 17 16 16 15 15 14 13 12 12 12 11 11 11 11 11 11 11
14 14 15 16 16 17 17 17 18 19 19 20 20 20 21 22 23 23 23 22 22 21 20 19 17 17 16 15 14 14 14 13 12 12 11 11 10 10 10 10 10 10 10
15 15 16 16 16 16 17 17 19 20 21 21 22 23 23 23 23 23 23 22 21 20 19 17 17 16 15 14 13 13 12 12 11 11 11 10 10 10 10 10 10 10 10
15 16 16 16 16 16 17 17 18 20 21 22 23 24 24 24 24 23 23 22 20 19 18 17 16 15 14 13 13 12 12 11 11 11 10 10 10 10 10 10 10 10 9
16 16 16 16 17 17 18 18 19 19 20 21 23 23 23 23 23 23 22 20 19 18 17 17 16 15 14 14 13 12 12 11 11 10 10 10 10 10 10 10 10 10 10
17 17 17 17 18 18 19 19 20 20 21 22 22 23 23 23 22 21 20 19 18 17 17 17 16 15 15 14 13 13 12 11 11 10 10 9 9 9 9 9 10 10 10
17 17 17 18 19 19 20 20 21 21 22 22 22 23 23 22 20 19 18 18 18 17 17 17 16 15 15 14 14 13 12 11 10 10 9 9 8 8 9 9 9 10 10
17 17 18 19 19 20 20 21 22 22 22 22 22 23 22 21 19 18 17 18 18 18 17 17 16 15 15 14 13 13 12 11 10 10 9 8 8 8 8 8 9 9 10
18 18 19 19 20 21 21 22 22 22 22 22 22 22 21 20 18 18 18 18 18 18 17 17 16 15 14 14 13 12 12 11 10 10 9 8 8 7 7 7 8 9 10
18 19 19 20 21 21 22 22 22 22 22 22 22 21 20 19 18 18 18 18 18 18 17 16 15 15 14 13 13 12 11 11 10 10 9 8 8 7 7 8 8 9 10
19 19 20 21 21 22 22 22 22 22 22 22 21 20 19 18 18 18 18 18 18 17 16 15 15 14 14 13 12 12 12 11 11 10 9 8 8 7 8 8 9 10 10
20 20 21 21 22 22 22 22 22 22 21 20 20 19 19 18 18 18 18 17 17 16 15 15 14 14 13 13 12 12 12 11 11 10 9 9 8 8 8 9 10 10 11
20 21 21 22 22 22 22 22 22 21 21 20 19 19 18 18 18 18 18 17 17 16 15 14 14 13 13 13 12 12 12 11 11 10 10 9 8 8 8 9 10 11 11